Location: *
(45.0500°N, 12.0500°E)
Time: 13:47:09
(UTC+00:00)

H-2A R/B - Visible Passes

Search period start: 06 August 2020 00:00
Search period end: 16 August 2020 00:00
Orbit: 733 x 837 km, 98.2° (Epoch: 05 August)

Date Brightness Start Highest point End Pass type
(mag) Time Alt. Az. Time Alt. Az. Time Alt. Az.
06 Aug 4.8 19:56:31 10° WSW 19:59:12 14° W 20:01:52 10° WNW visible
07 Aug 4.1 19:23:36 10° SSW 19:27:56 26° W 19:32:12 10° NW visible
09 Aug 4.9 20:03:59 10° WSW 20:05:51 12° W 20:07:43 10° WNW visible
10 Aug 4.3 19:30:30 10° SW 19:34:32 23° W 19:38:30 10° NW visible
11 Aug 3.3 18:58:30 10° S 19:03:22 42° W 19:08:09 10° NNW visible
13 Aug 4.5 19:37:29 10° SW 19:41:08 20° W 19:44:45 10° NW visible
14 Aug 3.6 19:05:15 10° SSW 19:09:56 36° W 19:14:33 10° NNW visible
